TimeEDT,TemperatureF,Dew PointF,Humidity,Sea Level PressureIn,VisibilityMPH,Wind Direction,Wind SpeedMPH,Gust SpeedMPH,PrecipitationIn,Events,Conditions,WindDirDegrees,DateUTC
12:15 AM,78.8,71.6,78,29.66,10.0,SW,5.8,-,N/A,,Partly Cloudy,220,2013-07-20 04:15:00
12:35 AM,77.0,71.6,83,29.67,10.0,SW,5.8,-,N/A,,Clear,220,2013-07-20 04:35:00
12:55 AM,75.2,71.6,89,29.66,9.0,SW,4.6,-,N/A,,Clear,230,2013-07-20 04:55:00
1:15 AM,75.2,71.6,89,29.66,10.0,WSW,4.6,-,N/A,,Clear,240,2013-07-20 05:15:00
1:35 AM,75.2,71.6,89,29.66,8.0,WSW,4.6,-,N/A,,Clear,250,2013-07-20 05:35:00
1:55 AM,75.2,71.6,89,29.64,7.0,SSW,4.6,-,N/A,,Clear,210,2013-07-20 05:55:00
2:15 AM,73.4,71.6,94,29.61,6.0,Calm,Calm,-,N/A,,Clear,0,2013-07-20 06:15:00
2:35 AM,73.4,69.8,88,29.60,5.0,South,5.8,-,N/A,,Clear,170,2013-07-20 06:35:00
2:55 AM,71.6,69.8,94,29.62,5.0,SSW,4.6,-,N/A,,Clear,210,2013-07-20 06:55:00
3:15 AM,73.4,69.8,88,29.62,5.0,WSW,6.9,-,N/A,,Clear,240,2013-07-20 07:15:00
3:35 AM,73.4,71.6,94,29.63,5.0,WSW,11.5,-,N/A,,Clear,250,2013-07-20 07:35:00
3:55 AM,73.4,71.6,94,29.63,5.0,WSW,8.1,-,N/A,,Clear,250,2013-07-20 07:55:00
4:15 AM,73.4,71.6,94,29.63,5.0,WSW,8.1,-,N/A,,Clear,240,2013-07-20 08:15:00
4:35 AM,73.4,69.8,88,29.63,6.0,WSW,9.2,-,N/A,,Clear,250,2013-07-20 08:35:00
4:55 AM,73.4,69.8,88,29.63,7.0,WSW,8.1,-,N/A,,Clear,250,2013-07-20 08:55:00
5:15 AM,73.4,69.8,88,29.64,7.0,WSW,9.2,-,N/A,,Clear,250,2013-07-20 09:15:00
5:35 AM,73.4,69.8,88,29.65,8.0,WSW,10.4,-,N/A,,Clear,250,2013-07-20 09:35:00
5:55 AM,73.4,68.0,83,29.66,10.0,West,8.1,-,N/A,,Clear,260,2013-07-20 09:55:00
6:15 AM,73.4,68.0,83,29.66,10.0,WSW,8.1,-,N/A,,Clear,250,2013-07-20 10:15:00
6:35 AM,75.2,68.0,78,29.66,10.0,WSW,6.9,-,N/A,,Clear,240,2013-07-20 10:35:00
6:55 AM,75.2,68.0,78,29.67,10.0,West,4.6,-,N/A,,Clear,260,2013-07-20 10:55:00
7:15 AM,75.2,69.8,83,29.68,10.0,WSW,4.6,-,N/A,,Clear,240,2013-07-20 11:15:00
7:35 AM,77.0,68.0,74,29.68,10.0,West,6.9,-,N/A,,Clear,260,2013-07-20 11:35:00
7:55 AM,78.8,68.0,69,29.68,10.0,WSW,8.1,-,N/A,,Clear,250,2013-07-20 11:55:00
8:15 AM,78.8,69.8,74,29.68,10.0,SW,5.8,-,N/A,,Clear,230,2013-07-20 12:15:00
8:35 AM,80.6,69.8,70,29.69,5.0,West,9.2,-,N/A,,Clear,260,2013-07-20 12:35:00
8:55 AM,80.6,69.8,70,29.68,10.0,South,4.6,-,N/A,,Clear,190,2013-07-20 12:55:00
9:15 AM,80.6,69.8,70,29.67,10.0,WSW,5.8,-,N/A,,Partly Cloudy,250,2013-07-20 13:15:00
9:35 AM,80.6,69.8,70,29.67,10.0,West,6.9,-,N/A,,Partly Cloudy,270,2013-07-20 13:35:00
9:55 AM,82.4,69.8,66,29.66,10.0,South,8.1,-,N/A,,Clear,170,2013-07-20 13:55:00
10:15 AM,80.6,68.0,65,29.66,10.0,South,6.9,-,N/A,,Clear,170,2013-07-20 14:15:00
10:35 AM,80.6,68.0,65,29.66,10.0,South,9.2,-,N/A,,Clear,180,2013-07-20 14:35:00
10:55 AM,80.6,69.8,70,29.65,10.0,South,6.9,-,N/A,,Clear,170,2013-07-20 14:55:00
11:15 AM,80.6,68.0,65,29.65,10.0,South,8.1,-,N/A,,Clear,190,2013-07-20 15:15:00
11:35 AM,78.8,68.0,69,29.65,10.0,South,9.2,-,N/A,,Clear,180,2013-07-20 15:35:00
11:55 AM,80.6,69.8,70,29.65,10.0,South,6.9,-,N/A,,Clear,180,2013-07-20 15:55:00
12:35 PM,82.4,69.8,66,29.64,10.0,SW,12.7,18.4,N/A,,Partly Cloudy,230,2013-07-20 16:35:00
12:55 PM,84.2,69.8,62,29.64,10.0,SW,13.8,19.6,N/A,,Partly Cloudy,220,2013-07-20 16:55:00
1:15 PM,82.4,68.0,62,29.63,10.0,SW,15.0,20.7,N/A,,Clear,230,2013-07-20 17:15:00
1:35 PM,82.4,69.8,66,29.62,4.0,SSW,11.5,-,N/A,,Clear,210,2013-07-20 17:35:00
1:55 PM,84.2,69.8,62,29.61,10.0,SW,13.8,20.7,N/A,,Clear,220,2013-07-20 17:55:00
2:15 PM,84.2,68.0,58,29.61,10.0,SW,15.0,21.9,N/A,,Clear,230,2013-07-20 18:15:00
2:35 PM,84.2,69.8,62,29.61,10.0,SW,10.4,20.7,N/A,,Clear,230,2013-07-20 18:35:00
2:55 PM,84.2,69.8,62,29.61,10.0,SW,18.4,24.2,N/A,,Clear,220,2013-07-20 18:55:00
3:15 PM,84.2,68.0,58,29.61,10.0,WSW,11.5,18.4,N/A,,Clear,240,2013-07-20 19:15:00
3:35 PM,82.4,68.0,62,29.60,10.0,SW,13.8,20.7,N/A,,Scattered Clouds,230,2013-07-20 19:35:00
3:55 PM,82.4,69.8,66,29.61,10.0,SSW,12.7,-,N/A,,Scattered Clouds,210,2013-07-20 19:55:00
4:15 PM,80.6,69.8,70,29.62,10.0,SW,11.5,17.3,N/A,,Mostly Cloudy,220,2013-07-20 20:15:00
4:35 PM,80.6,69.8,70,29.61,10.0,SW,12.7,-,N/A,,Partly Cloudy,230,2013-07-20 20:35:00
4:55 PM,82.4,69.8,66,29.60,10.0,SW,10.4,-,N/A,,Clear,230,2013-07-20 20:55:00
5:15 PM,82.4,71.6,70,29.60,10.0,SSW,6.9,20.7,N/A,,Clear,200,2013-07-20 21:15:00
5:35 PM,82.4,69.8,66,29.61,10.0,SSW,16.1,24.2,N/A,,Clear,210,2013-07-20 21:35:00
5:55 PM,80.6,69.8,70,29.62,10.0,SW,12.7,17.3,N/A,,Clear,230,2013-07-20 21:55:00
6:15 PM,77.0,69.8,78,29.64,9.0,WSW,10.4,18.4,N/A,,Partly Cloudy,250,2013-07-20 22:15:00
6:35 PM,77.0,69.8,78,29.65,10.0,WNW,5.8,-,N/A,,Scattered Clouds,300,2013-07-20 22:35:00
6:55 PM,77.0,68.0,74,29.66,10.0,WNW,6.9,-,N/A,,Mostly Cloudy,290,2013-07-20 22:55:00
7:15 PM,77.0,66.2,69,29.66,10.0,WNW,6.9,-,N/A,,Mostly Cloudy,290,2013-07-20 23:15:00
7:35 PM,77.0,66.2,69,29.67,10.0,WNW,5.8,-,N/A,,Mostly Cloudy,290,2013-07-20 23:35:00
8:15 PM,71.6,68.0,88,29.67,10.0,WNW,3.5,-,0.07,,Overcast,290,2013-07-21 00:15:00
8:35 PM,71.6,66.2,83,29.68,10.0,WNW,6.9,-,0.07,,Scattered Clouds,290,2013-07-21 00:35:00
8:55 PM,71.6,64.4,78,29.69,10.0,WNW,4.6,-,0.07,,Clear,290,2013-07-21 00:55:00
9:15 PM,69.8,64.4,83,29.70,10.0,NW,4.6,-,N/A,,Clear,310,2013-07-21 01:15:00
9:36 PM,68.0,66.2,94,29.71,10.0,Calm,Calm,-,N/A,,Clear,0,2013-07-21 01:36:00
9:55 PM,68.0,64.4,88,29.71,10.0,Calm,Calm,-,N/A,,Clear,0,2013-07-21 01:55:00
10:15 PM,66.2,64.4,94,29.72,10.0,Calm,Calm,-,N/A,,Clear,0,2013-07-21 02:15:00
10:55 PM,66.2,64.4,94,29.74,10.0,Calm,Calm,-,N/A,,Clear,0,2013-07-21 02:55:00
11:15 PM,69.8,64.4,83,29.75,10.0,WNW,5.8,-,N/A,,Clear,290,2013-07-21 03:15:00
11:35 PM,69.8,64.4,83,29.76,10.0,WNW,4.6,-,N/A,,Clear,300,2013-07-21 03:35:00
11:55 PM,69.8,64.4,83,29.77,10.0,NW,3.5,-,N/A,,Clear,320,2013-07-21 03:55:00